DW7002 Weather Reports


Display with metric or nautical units.
time (UTC)temp
F
wind
direction
speed
MPH
gust
MPH
rain 1hr
in
rain 24hr
in
rain mn
in
humidity
%
barometer
mb
20230204054123 28 17 2.0 3.0 0.00 0.01 0.00 57 1033.3
20230204053631 28 17 1.0 2.0 0.00 0.01 0.00 54 1033.3
20230204053120 28 18 1.0 2.0 0.00 0.01 0.00 54 1033.4
20230204052632 28 17 1.0 4.0 0.00 0.01 0.00 50 1033.3
20230204052120 28 5 2.0 4.0 0.00 0.01 0.00 50 1033.2
20230204051628 28 5 3.0 4.0 0.00 0.01 0.00 50 1033.0
20230204051118 29 19 1.0 2.0 0.00 0.01 0.00 50 1033.1
20230204050626 29 24 0.0 2.0 0.00 0.01 0.01 50 1033.2
20230204050134 29 24 1.0 4.0 0.00 0.01 0.01 51 1033.0
20230204045619 29 25 2.0 3.0 0.00 0.01 0.01 50 1032.8
20230204045148 29 25 2.0 5.0 0.00 0.01 0.01 50 1032.7
20230204044636 29 15 2.0 5.0 0.00 0.01 0.01 49 1032.7
20230204044124 29 29 1.0 2.0 0.00 0.01 0.01 49 1032.7
20230204043636 29 29 1.0 2.0 0.00 0.01 0.01 49 1032.6
20230204043144 29 29 1.0 5.0 0.00 0.01 0.01 50 1032.3
20230204042652 29 29 2.0 5.0 0.00 0.01 0.01 49 1032.1
20230204042118 29 5 3.0 5.0 0.00 0.01 0.01 48 1032.1
20230204041626 29 22 2.0 3.0 0.00 0.01 0.01 49 1032.1
20230204041135 29 26 2.0 5.0 0.00 0.01 0.01 49 1032.0
20230204040623 30 32 3.0 5.0 0.00 0.01 0.01 48 1031.9
20230204040131 30 38 3.0 5.0 0.00 0.01 0.01 50 1031.8
20230204035617 30 32 3.0 5.0 0.00 0.01 0.01 49 1031.7
20230204035125 30 13 3.0 5.0 0.00 0.01 0.01 49 1031.6
20230204034617 30 11 3.0 5.0 0.00 0.01 0.01 48 1031.7
20230204034127 30 15 2.0 5.0 0.00 0.01 0.01 50 1031.6
20230204033616 30 48 3.0 5.0 0.00 0.01 0.01 50 1031.6
20230204033146 30 59 2.0 5.0 0.00 0.01 0.01 50 1031.4
20230204032633 30 19 2.0 5.0 0.00 0.01 0.01 50 1031.4
20230204032121 30 30 2.0 6.0 0.00 0.01 0.01 49 1031.4
20230204031630 30 25 4.0 6.0 0.00 0.01 0.01 48 1031.2
20230204031120 31 15 2.0 5.0 0.00 0.01 0.01 48 1031.2
20230204030627 31 23 3.0 6.0 0.00 0.01 0.01 49 1031.0
20230204030116 31 26 4.0 6.0 0.00 0.01 0.01 49 1031.0
20230204025621 31 25 3.0 3.0 0.00 0.01 0.01 49 1031.0
20230204025135 31 22 2.0 5.0 0.00 0.01 0.01 48 1030.9
20230204024623 31 40 3.0 6.0 0.00 0.01 0.01 48 1030.8
20230204024153 31 5 3.0 6.0 0.00 0.01 0.01 47 1030.8
20230204023622 31 21 3.0 6.0 0.00 0.01 0.01 47 1030.7
20230204023131 32 48 4.0 6.0 0.00 0.01 0.01 48 1030.6
20230204022619 32 15 4.0 6.0 0.00 0.01 0.01 48 1030.5
20230204022127 32 22 3.0 6.0 0.00 0.01 0.01 49 1030.5
20230204021636 32 35 2.0 7.0 0.00 0.01 0.01 48 1030.5
20230204021126 32 32 5.0 7.0 0.00 0.01 0.01 48 1030.3
20230204020617 32 38 4.0 7.0 0.00 0.02 0.01 49 1030.3
20230204020124 32 26 5.0 7.0 0.00 0.02 0.01 48 1030.4
20230204015650 32 43 3.0 6.0 0.00 0.02 0.01 51 1030.4
20230204015117 32 60 2.0 3.0 0.00 0.02 0.01 52 1030.2
20230204014625 32 60 1.0 3.0 0.00 0.02 0.01 51 1030.0
20230204014136 33 60 2.0 5.0 0.00 0.02 0.01 51 1030.2
20230204013643 33 51 3.0 5.0 0.00 0.02 0.01 48 1030.0
20230204013130 33 62 2.0 5.0 0.00 0.02 0.01 47 1029.8
20230204012618 33 38 1.0 2.0 0.00 0.02 0.01 49 1029.8
20230204012125 33 38 0.0 2.0 0.00 0.02 0.01 50 1029.7
20230204011633 34 38 1.0 2.0 0.00 0.02 0.01 47 1029.7
20230204011127 34 34 1.0 3.0 0.00 0.02 0.01 47 1029.6
20230204010635 34 34 1.0 6.0 0.00 0.04 0.01 46 1029.4
20230204010123 34 24 2.0 6.0 0.00 0.04 0.01 46 1029.4
20230204005629 34 5 3.0 6.0 0.00 0.04 0.01 44 1029.1
20230204005117 35 27 4.0 6.0 0.00 0.04 0.01 45 1029.0
20230204004646 35 360 4.0 7.0 0.00 0.04 0.01 45 1029.0
20230204004135 35 355 5.0 7.0 0.00 0.04 0.01 44 1029.0
20230204003624 35 5 3.0 5.0 0.00 0.04 0.01 45 1029.0
20230204003130 35 13 4.0 6.0 0.00 0.04 0.01 44 1028.7
20230204002618 35 355 4.0 6.0 0.00 0.04 0.01 43 1028.6
20230204002130 35 9 2.0 5.0 0.00 0.04 0.01 44 1028.5
20230204001618 36 5 2.0 5.0 0.00 0.04 0.01 44 1028.2
20230204001127 36 10 2.0 5.0 0.00 0.04 0.01 43 1027.9
20230204000635 36 10 2.0 5.0 0.01 0.05 0.01 43 1028.0
20230204000142 36 5 3.0 6.0 0.01 0.05 0.01 41 1027.8
20230203235625 36 355 3.0 6.0 0.01 0.05 0.01 40 1027.8
20230203235134 36 318 4.0 6.0 0.01 0.05 0.01 41 1027.7
20230203234621 36 336 3.0 5.0 0.01 0.05 0.01 41 1027.6
20230203234131 37 339 2.0 5.0 0.01 0.05 0.01 42 1027.5
20230203233618 37 336 3.0 5.0 0.01 0.05 0.01 40 1027.4
20230203233130 37 355 3.0 5.0 0.01 0.05 0.01 41 1027.3
20230203232618 37 324 2.0 3.0 0.01 0.05 0.01 40 1027.0
20230203232126 37 9 1.0 6.0 0.01 0.05 0.01 42 1027.0
20230203231633 38 9 4.0 6.0 0.01 0.05 0.01 38 1026.9
20230203231123 38 355 2.0 5.0 0.01 0.05 0.01 39 1026.8
20230203230632 38 355 2.0 5.0 0.00 0.04 0.00 38 1026.7
20230203230119 39 309 2.0 6.0 0.00 0.04 0.00 38 1026.5
20230203225625 39 325 3.0 7.0 0.00 0.04 0.00 37 1026.3
20230203225133 39 327 4.0 7.0 0.00 0.04 0.00 34 1026.1
20230203224626 39 342 4.0 7.0 0.00 0.04 0.00 35 1026.2
20230203224136 40 5 3.0 7.0 0.00 0.04 0.00 34 1026.0
20230203223623 40 355 5.0 9.0 0.00 0.04 0.00 33 1025.9
20230203223131 40 360 4.0 9.0 0.00 0.04 0.00 33 1025.8
20230203222658 40 324 4.0 7.0 0.00 0.04 0.00 34 1025.7
20230203222123 41 330 4.0 7.0 0.00 0.04 0.00 33 1025.6
20230203221632 41 338 4.0 7.0 0.00 0.04 0.00 33 1025.5
20230203221121 42 327 4.0 7.0 0.00 0.04 0.00 32 1025.2
20230203220629 42 341 4.0 7.0 0.00 0.04 0.00 31 1025.1
20230203220116 42 337 3.0 8.0 0.00 0.04 0.00 34 1024.9
20230203215625 42 346 6.0 9.0 0.00 0.04 0.00 31 1024.8
20230203215133 43 5 3.0 9.0 0.00 0.04 0.00 32 1024.6
20230203214642 43 351 3.0 8.0 0.00 0.04 0.00 32 1024.5
20230203214131 43 340 3.0 9.0 0.00 0.04 0.00 33 1024.4
20230203213618 43 329 4.0 10.0 0.00 0.04 0.00 33 1024.3
20230203213126 43 344 5.0 10.0 0.00 0.04 0.00 31 1024.1
20230203212634 43 360 6.0 9.0 0.00 0.04 0.00 31 1024.0
20230203212124 44 328 5.0 9.0 0.00 0.04 0.00 31 1023.8
20230203211633 44 331 5.0 9.0 0.00 0.04 0.00 32 1023.7
20230203211122 44 9 3.0 6.0 0.00 0.04 0.00 33 1023.5
20230203210630 44 5 3.0 11.0 0.00 0.05 0.00 33 1023.4
20230203210123 44 26 6.0 11.0 0.00 0.05 0.00 33 1023.3
20230203205627 44 345 4.0 9.0 0.00 0.05 0.00 32 1023.3
20230203205136 44 323 5.0 9.0 0.00 0.05 0.00 34 1023.1
20230203204644 45 342 5.0 10.0 0.00 0.05 0.00 35 1023.0
20230203204153 45 355 4.0 10.0 0.00 0.05 0.00 35 1022.8
20230203203621 45 31 4.0 10.0 0.00 0.05 0.00 34 1022.8
20230203203130 45 341 5.0 8.0 0.00 0.05 0.00 35 1022.7
20230203202618 45 38 4.0 9.0 0.00 0.05 0.00 34 1022.6
20230203202126 45 5 7.0 9.0 0.00 0.05 0.00 32 1022.6
20230203201636 45 13 5.0 8.0 0.00 0.05 0.00 34 1022.6
20230203201125 45 19 5.0 9.0 0.00 0.05 0.00 33 1022.6
20230203200617 45 314 5.0 9.0 0.00 0.05 0.00 32 1022.3
20230203200145 45 348 6.0 9.0 0.00 0.05 0.00 36 1022.2
20230203195630 45 21 5.0 9.0 0.00 0.05 0.00 36 1022.2
20230203195119 45 313 4.0 10.0 0.00 0.05 0.00 35 1022.0
20230203194629 45 347 4.0 10.0 0.00 0.05 0.00 38 1022.0
20230203194117 46 360 5.0 9.0 0.00 0.05 0.00 39 1021.9
20230203193626 46 326 4.0 9.0 0.00 0.05 0.00 36 1021.8
20230203193134 46 5 3.0 6.0 0.00 0.05 0.00 39 1021.9
20230203192622 46 349 4.0 8.0 0.00 0.05 0.00 36 1021.8
20230203192129 45 355 5.0 8.0 0.00 0.05 0.00 39 1021.8
20230203191623 45 295 5.0 9.0 0.00 0.05 0.00 36 1021.8
20230203191133 45 355 4.0 9.0 0.00 0.05 0.00 36 1021.8
20230203190642 45 5 5.0 9.0 0.00 0.06 0.00 37 1021.8
20230203190129 45 319 6.0 8.0 0.00 0.06 0.00 35 1021.8
20230203185635 45 319 5.0 9.0 0.00 0.06 0.00 37 1021.7
20230203185123 45 319 4.0 10.0 0.00 0.06 0.00 38 1021.7
20230203184632 45 5 6.0 10.0 0.00 0.06 0.00 39 1021.6
20230203184122 45 32 4.0 9.0 0.00 0.06 0.00 40 1021.6
20230203183629 45 360 5.0 10.0 0.00 0.06 0.00 38 1021.6
20230203183117 45 21 6.0 10.0 0.00 0.06 0.00 39 1021.5
20230203182629 45 347 6.0 8.0 0.00 0.06 0.00 39 1021.5
20230203182157 45 326 4.0 9.0 0.00 0.06 0.00 42 1021.6
20230203181625 45 5 6.0 9.0 0.00 0.06 0.00 41 1021.6
20230203181136 45 279 5.0 8.0 0.00 0.06 0.00 39 1021.6
20230203180623 45 355 5.0 8.0 0.00 0.06 0.00 43 1021.5
20230203180129 44 334 5.0 9.0 0.00 0.06 0.00 43 1021.7
20230203175633 44 286 5.0 10.0 0.00 0.06 0.00 41 1021.5
20230203175122 44 360 5.0 10.0 0.00 0.06 0.00 43 1021.6
20230203174649 44 266 3.0 8.0 0.00 0.06 0.00 45 1021.7
20230203174137 44 306 5.0 9.0 0.00 0.06 0.00 45 1021.7
20230203173624 44 360 3.0 11.0 0.00 0.06 0.00 45 1021.7
20230203173117 44 5 4.0 11.0 0.00 0.06 0.00 46 1021.6
20230203172625 44 274 5.0 8.0 0.00 0.06 0.00 45 1021.7
20230203172114 44 10 3.0 9.0 0.00 0.06 0.00 50 1021.8
20230203171625 43 313 4.0 10.0 0.00 0.06 0.00 48 1021.8
20230203171135 43 321 6.0 8.0 0.00 0.06 0.00 47 1021.8
20230203170621 43 338 5.0 8.0 0.00 0.06 0.00 47 1021.9
20230203170130 43 334 4.0 7.0 0.00 0.06 0.00 51 1021.9
20230203165636 43 350 5.0 7.0 0.00 0.06 0.00 49 1021.9
20230203165123 43 333 5.0 8.0 0.00 0.06 0.00 48 1021.9
20230203164615 42 40 3.0 8.0 0.00 0.06 0.00 52 1022.0
20230203164129 42 346 5.0 10.0 0.00 0.06 0.00 49 1022.1
20230203163617 42 313 6.0 10.0 0.00 0.06 0.00 52 1022.1
20230203163146 42 322 5.0 9.0 0.00 0.06 0.00 53 1022.2
20230203162617 41 344 3.0 8.0 0.00 0.06 0.00 54 1022.1
20230203162127 41 5 3.0 9.0 0.00 0.06 0.00 58 1021.9
20230203161615 41 279 4.0 9.0 0.00 0.06 0.00 61 1021.9
20230203161127 41 339 5.0 8.0 0.00 0.06 0.00 57 1021.7
20230203160634 41 346 4.0 8.0 0.00 0.09 0.00 58 1021.8
20230203160143 41 347 5.0 8.0 0.00 0.09 0.00 59 1021.5
20230203155630 41 289 5.0 7.0 0.00 0.09 0.00 59 1021.6
20230203155118 41 5 3.0 7.0 0.00 0.09 0.00 63 1021.5
20230203154650 41 19 4.0 8.0 0.00 0.09 0.00 63 1021.3
20230203154121 41 337 5.0 8.0 0.00 0.09 0.00 63 1021.6
20230203153631 40 331 2.0 6.0 0.00 0.09 0.00 66 1021.4
20230203153122 40 351 4.0 8.0 0.00 0.09 0.00 63 1021.4
20230203152613 40 360 2.0 7.0 0.00 0.09 0.00 65 1021.2
20230203152124 40 350 4.0 7.0 0.00 0.09 0.00 66 1021.4
20230203151615 40 339 4.0 9.0 0.00 0.09 0.00 65 1021.3
20230203151132 40 355 6.0 9.0 0.00 0.09 0.00 64 1020.9
20230203150622 40 355 6.0 8.0 0.00 0.13 0.00 65 1021.2
20230203150114 40 338 4.0 8.0 0.00 0.13 0.00 66 1021.4
20230203145622 40 346 5.0 8.0 0.00 0.13 0.00 66 1021.2
20230203145132 40 348 4.0 8.0 0.00 0.13 0.00 67 1021.3
20230203144623 40 301 5.0 8.0 0.00 0.13 0.00 66 1020.8
20230203144116 40 360 4.0 7.0 0.00 0.13 0.00 67 1020.8
20230203143627 40 12 4.0 6.0 0.00 0.13 0.00 67 1020.5
20230203143119 40 347 3.0 6.0 0.00 0.13 0.00 69 1020.3
20230203142614 40 11 2.0 6.0 0.00 0.13 0.00 68 1020.2
20230203142126 40 324 3.0 6.0 0.00 0.13 0.00 69 1020.1
20230203141618 40 344 3.0 7.0 0.00 0.13 0.00 68 1019.8
20230203141130 39 338 3.0 8.0 0.00 0.13 0.00 67 1020.1
20230203140641 39 355 5.0 8.0 0.00 0.15 0.00 66 1019.9
20230203140130 39 309 3.0 9.0 0.00 0.15 0.00 70 1019.9
20230203135617 39 315 4.0 9.0 0.00 0.15 0.00 66 1020.0
20230203135127 39 290 3.0 7.0 0.00 0.15 0.00 69 1019.9
20230203134637 39 313 3.0 5.0 0.00 0.15 0.00 69 1019.7
20230203134129 39 36 2.0 5.0 0.00 0.15 0.00 72 1019.6
20230203133624 39 345 4.0 6.0 0.00 0.15 0.00 67 1019.2
20230203133135 39 308 3.0 7.0 0.00 0.15 0.00 70 1019.1
20230203132625 39 317 2.0 5.0 0.00 0.15 0.00 68 1018.8
20230203132117 39 27 2.0 5.0 0.00 0.15 0.00 70 1018.5
20230203131648 39 325 3.0 7.0 0.00 0.15 0.00 68 1018.5
20230203131121 39 333 3.0 6.0 0.00 0.15 0.00 69 1018.6
20230203130631 39 350 3.0 7.0 0.00 0.15 0.00 67 1018.4
20230203130121 39 360 3.0 8.0 0.00 0.15 0.00 70 1018.3
20230203125649 39 336 5.0 8.0 0.00 0.15 0.00 68 1018.2
20230203125118 39 11 2.0 6.0 0.00 0.15 0.00 69 1018.2
20230203124614 39 5 1.0 5.0 0.00 0.15 0.00 69 1018.3
20230203124127 39 317 3.0 5.0 0.00 0.15 0.00 67 1018.2
20230203123617 39 5 1.0 4.0 0.00 0.15 0.00 67 1018.4
20230203123129 39 19 2.0 3.0 0.00 0.15 0.00 70 1018.4
20230203122621 39 337 2.0 4.0 0.00 0.15 0.00 67 1018.4
20230203122132 39 302 2.0 5.0 0.00 0.15 0.00 70 1018.6
20230203121644 39 302 1.0 3.0 0.00 0.15 0.00 70 1018.2
20230203121115 39 313 1.0 4.0 0.00 0.15 0.00 70 1018.2
20230203120626 39 332 2.0 4.0 0.00 0.16 0.00 70 1018.0
20230203120122 39 314 2.0 4.0 0.00 0.16 0.00 70 1018.1
20230203115630 39 325 1.0 4.0 0.00 0.16 0.00 72 1017.8
20230203115121 39 340 1.0 4.0 0.00 0.16 0.00 76 1017.5
20230203114631 39 340 0.0 1.0 0.00 0.16 0.00 74 1017.7
20230203114123 39 340 0.0 0.0 0.00 0.16 0.00 81 1017.7
20230203113634 39 340 0.0 1.0 0.00 0.16 0.00 81 1017.5
20230203113125 39 340 0.0 1.0 0.00 0.16 0.00 79 1017.5
20230203112615 39 340 0.0 2.0 0.00 0.16 0.00 73 1017.9
20230203112126 39 340 1.0 2.0 0.00 0.16 0.00 70 1017.9
20230203111641 40 340 0.0 2.0 0.00 0.16 0.00 71 1017.6
20230203111132 40 340 1.0 2.0 0.00 0.16 0.00 72 1017.6
20230203110643 40 340 1.0 2.0 0.00 0.22 0.00 71 1017.5
20230203110133 40 340 0.0 2.0 0.00 0.22 0.00 70 1017.4
20230203105620 40 340 1.0 2.0 0.00 0.22 0.00 70 1017.4
20230203105131 40 340 1.0 4.0 0.00 0.22 0.00 71 1017.4
20230203104621 40 340 1.0 2.0 0.00 0.22 0.00 73 1017.3
20230203104134 40 340 1.0 5.0 0.00 0.22 0.00 73 1017.3
20230203103626 40 344 2.0 5.0 0.00 0.22 0.00 70 1017.3
20230203103117 40 297 1.0 4.0 0.00 0.22 0.00 73 1017.5
20230203102633 40 297 1.0 4.0 0.00 0.22 0.00 73 1017.4
20230203102124 40 323 0.0 2.0 0.00 0.22 0.00 73 1017.2
20230203101636 40 323 1.0 4.0 0.00 0.22 0.00 75 1017.0
20230203101127 40 292 2.0 5.0 0.00 0.22 0.00 75 1017.1
20230203100617 40 292 2.0 5.0 0.00 0.26 0.00 74 1017.0
20230203100129 40 305 1.0 4.0 0.00 0.26 0.00 77 1017.0
20230203095617 40 312 1.0 4.0 0.00 0.26 0.00 79 1016.8
20230203095128 40 297 1.0 4.0 0.00 0.26 0.00 80 1016.8
20230203094639 40 297 1.0 4.0 0.00 0.26 0.00 78 1016.7
20230203094130 40 297 1.0 4.0 0.00 0.26 0.00 80 1016.6
20230203093624 40 297 1.0 4.0 0.00 0.26 0.00 80 1017.0
20230203093115 40 298 1.0 2.0 0.00 0.26 0.00 80 1017.0
20230203092627 40 298 1.0 2.0 0.00 0.26 0.00 82 1016.8
20230203092118 40 293 1.0 4.0 0.00 0.26 0.00 84 1016.8
20230203091630 40 287 2.0 3.0 0.00 0.26 0.00 83 1017.0
20230203091121 40 294 1.0 4.0 0.00 0.26 0.00 85 1016.8
20230203090632 41 294 1.0 4.0 0.00 0.28 0.00 87 1016.7
20230203090123 41 294 1.0 4.0 0.00 0.28 0.00 89 1016.7
20230203085615 41 294 1.0 2.0 0.00 0.28 0.00 90 1016.8
20230203085126 41 294 1.0 2.0 0.00 0.28 0.00 90 1016.8
20230203084617 41 294 1.0 2.0 0.00 0.28 0.00 92 1016.9
20230203084130 41 294 1.0 2.0 0.00 0.28 0.00 92 1017.0
20230203083621 41 294 1.0 2.0 0.00 0.28 0.00 92 1017.1
20230203083132 41 294 1.0 2.0 0.00 0.28 0.00 93 1016.9
20230203082622 41 294 1.0 4.0 0.00 0.28 0.00 93 1016.8
20230203082134 42 292 1.0 2.0 0.00 0.28 0.00 94 1017.0
20230203081629 42 292 1.0 4.0 0.00 0.28 0.00 95 1017.0
20230203081120 42 292 2.0 4.0 0.00 0.28 0.00 95 1017.0
20230203080631 42 306 2.0 2.0 0.00 0.29 0.00 96 1016.9
20230203080122 42 306 1.0 2.0 0.00 0.29 0.00 96 1016.8
20230203075630 42 306 1.0 2.0 0.00 0.29 0.00 96 1016.9
20230203075119 42 306 1.0 2.0 0.00 0.29 0.00 96 1017.0
20230203074631 42 306 0.0 2.0 0.00 0.29 0.00 97 1017.1
20230203074239 42 306 1.0 4.0 0.00 0.29 0.00 97 1017.0
20230203073655 42 306 1.0 4.0 0.00 0.29 0.00 97 1017.1
20230203073130 42 306 1.0 2.0 0.00 0.29 0.00 97 1017.0
20230203072621 42 306 0.0 2.0 0.00 0.29 0.00 97 1016.9
20230203072153 42 306 1.0 2.0 0.00 0.29 0.00 97 1017.0
20230203071621 42 306 1.0 2.0 0.00 0.29 0.00 97 1017.1
20230203071133 43 306 1.0 4.0 0.00 0.29 0.00 97 1017.1
20230203070622 43 306 1.0 4.0 0.00 0.30 0.00 97 1017.2
20230203070132 43 288 1.0 1.0 0.00 0.30 0.00 98 1017.2
20230203065640 43 288 0.0 1.0 0.00 0.30 0.00 98 1017.0
20230203065129 43 288 0.0 1.0 0.00 0.30 0.00 98 1017.0
20230203064620 43 288 0.0 1.0 0.00 0.30 0.00 98 1017.3
20230203064154 43 288 0.0 2.0 0.00 0.30 0.00 98 1017.4
20230203063628 43 288 0.0 2.0 0.00 0.30 0.00 98 1017.2
20230203063119 43 288 1.0 2.0 0.00 0.30 0.00 98 1017.2
20230203062651 43 288 1.0 2.0 0.00 0.30 0.00 98 1017.3
20230203062120 43 288 0.0 4.0 0.00 0.30 0.00 98 1017.4
20230203061631 43 288 1.0 2.0 0.00 0.30 0.00 98 1017.6
20230203061124 43 288 1.0 4.0 0.00 0.30 0.00 98 1017.6
20230203060634 43 288 1.0 4.0 0.00 0.30 0.00 98 1017.6
20230203060125 43 288 2.0 5.0 0.00 0.30 0.00 98 1017.8
20230203055652 43 291 1.0 5.0 0.00 0.30 0.00 98 1017.7
20230203055123 43 296 1.0 4.0 0.00 0.30 0.00 98 1017.7
20230203054617 43 296 1.0 3.0 0.00 0.30 0.00 98 1017.7